Location: Cz?stochówka
(50.8142°N, 19.0915°E)
Time: 04:54:58
(UTC+00:00)

Cosmos 1633 Rocket - Visible Passes

Search period start: 19 April 2026 00:00
Search period end: 29 April 2026 00:00
Orbit: 600 x 616 km, 82.5° (Epoch: 18 April)

Date Brightness Start Highest point End Pass type
(mag) Time Alt. Az. Time Alt. Az. Time Alt. Az.
19 Apr 6.9 19:08:43 10° WNW 19:09:50 11° WNW 19:10:56 10° NW visible
21 Apr 7.0 02:08:14 10° NE 02:08:35 10° ENE 02:08:56 10° ENE visible
22 Apr 6.3 02:20:07 10° NNE 02:22:42 15° ENE 02:25:17 10° E visible
23 Apr 5.9 02:33:17 10° NNE 02:36:44 23° ENE 02:40:10 10° ESE visible
23 Apr 6.7 18:24:59 10° W 18:27:11 14° WNW 18:29:23 10° NNW visible
24 Apr 5.0 02:46:44 10° N 02:50:43 34° ENE 02:54:39 10° SE visible
26 Apr 6.4 01:38:16 10° NE 01:40:04 12° ENE 01:41:50 10° E visible
27 Apr 6.0 01:51:07 10° NNE 01:54:08 18° ENE 01:57:09 10° ESE visible
28 Apr 5.4 02:04:25 10° N 02:08:09 27° ENE 02:11:50 10° SE visible
